Regional Weather Roundup
Issued by NWS Kansas City/Pleasant Hill, MO

Home | Current Version | Previous Version | Text Only | Print | Product List | Glossary On
Versions: 1 2 3 4 5 6 7 8 9 10 11 12 13 14 15 16 17 18 19 20 21 22 23 24 25 26 27 28 29 30 31 32 33 34 35 36 37 38 39 40 41 42 43 44 45 46 47 48 49 50
000
ASUS43 KEAX 280504
RWREAX

WEATHER ROUNDUP FOR EASTERN KANSAS AND NORTHWEST MISSOURI
NATIONAL WEATHER SERVICE KANSAS CITY/PLEASANT HILL MO
1200 AM CDT THU MAY 28 2015

KSZ040-057-103>105-MOZ028-029-037-043-280600-
...KANSAS CITY METROPOLITAN AREA...

CITY           SKY/WX    TMP DP  RH WIND       PRES   REMARKS
K.C. INTL      CLOUDY    68  55  63 SE6       30.09F
K.C. DOWNTOWN  CLOUDY    68  54  60 NE6       30.08F
LEES SUMMIT    CLOUDY    67  56  67 SE6       30.09F
OLATHE - IXD   CLOUDY    69  56  62 E3        30.09F
OLATHE - OJC   CLOUDY    68  56  65 E7        30.08F
LAWRENCE       CLOUDY    65  58  78 E3        30.08F

$$

MOZ001>008-011>017-020>025-030>033-038>040-044>046-053-054-280600-
...NORTHERN AND CENTRAL MISSOURI...

CITY           SKY/WX    TMP DP  RH WIND       PRES   REMARKS
ST. JOSEPH     CLOUDY    64  60  87 CALM      30.09S
MOSBY          CLOUDY    63  61  94 CALM      30.09F
WHITEMAN AFB   CLOUDY    67  58  71 E3        30.09F
CLINTON        NOT AVBL
SEDALIA        CLOUDY    67  59  75 SE3       30.12S
WARSAW         NOT AVBL
CHILLICOTHE      N/A     63  60  90 CALM      30.12R
KIRKSVILLE     CLEAR     60  58  92 CALM      30.15R

$$

MOZ041-047>049-056>058-063>065-088>090-097-280600-
...EASTERN AND SOUTHERN MISSOURI...

CITY           SKY/WX    TMP DP  RH WIND       PRES   REMARKS
ST. LOUIS INTL PTCLDY    70  57  63 CALM      30.14R
SPIRIT OF STL  CLEAR     62  61  96 CALM      30.12R
COLUMBIA       MOCLDY    67  57  70 E5        30.13R
JEFFERSON CITY MOCLDY    64  59  83 CALM      30.12R
ROLLA          MOCLDY    66  58  75 E5        30.13R
OSAGE BEACH    MOCLDY    63  57  82 SE5       30.12R
SPRINGFIELD    MOCLDY    71  64  78 E5        30.11R
BRANSON        CLOUDY    68  66  94 CALM      30.13R
JOPLIN         MOCLDY    71  66  84 SE3       30.08S
WEST PLAINS    LGT RAIN  70  66  87 CALM      30.16R FOG

$$

IAZ060-094-KSZ022-034>040-054-083-096-NEZ052-066-093-280600-
...KANSAS...SOUTHEAST NEBRASKA AND IOWA...

CITY           SKY/WX    TMP DP  RH WIND       PRES   REMARKS
TOPEKA         CLOUDY    66  59  78 E3        30.07F
MANHATTAN      CLOUDY    68  61  78 CALM      30.07R
EMPORIA        CLOUDY    68  62  81 SE7       30.08R
CHANUTE        CLOUDY    70  63  78 E7        30.07S
WICHITA        CLOUDY    73  67  81 SE5       30.07R
OMAHA          CLOUDY    67  53  61 SE7       30.07S
LINCOLN        MOCLDY    65  53  65 S6        30.07S
LAMONI         MOCLDY    72  57  59 S7        30.12R
DES MOINES     MOCLDY    68  59  73 S7        30.10R

$$




USA.gov is the U.S. government's official web portal to all federal, state and local government web resources and services.